• In Netherlands
  • List of Countries
  • For 7 days
  • Water Temperature
  • Satellite Maps
  • Weather Map
  • Weather Widgets
  • user-avatar
    Login

    Hourly Weather Prutz

    Today, 26 May, Friday

    Time Temperature Precipitation Wind Pressure Humidity
    00:00 +6°C° 0 mm 1 mps 635 mmHg 97%
    01:00 +5°C° 0 mm 1 mps 634 mmHg 96%
    02:00 +5°C° 0 mm 1 mps 634 mmHg 96%
    03:00 +5°C° 0 mm 1 mps 634 mmHg 95%
    04:00 +4°C° 0 mm 1 mps 634 mmHg 95%
    05:00 +6°C° 0 mm 1 mps 634 mmHg 86%
    06:00 +9°C° 0 mm 1 mps 635 mmHg 78%
    07:00 +10°C° 0 mm 0 mps 636 mmHg 70%
    08:00 +13°C° 0 mm 1 mps 637 mmHg 61%
    09:00 +15°C° 0 mm 1 mps 638 mmHg 52%
    10:00 +18°C° 0 mm 1 mps 638 mmHg 43%
    11:00 +18°C° 0 mm 2 mps 638 mmHg 42%
    12:00 +19°C° 0 mm 2 mps 638 mmHg 41%
    13:00 +20°C° 0 mm 2 mps 638 mmHg 40%
    14:00 +19°C° 0 mm 2 mps 638 mmHg 42%
    15:00 +19°C° 0 mm 2 mps 638 mmHg 44%
    16:00 +19°C° 0 mm 2 mps 637 mmHg 46%
    17:00 +17°C° 0 mm 2 mps 637 mmHg 57%
    18:00 +16°C° 0 mm 2 mps 636 mmHg 68%
    19:00 +14°C° 0 mm 1 mps 636 mmHg 78%
    20:00 +11°C° 0 mm 1 mps 635 mmHg 84%
    21:00 +8°C° 0 mm 1 mps 634 mmHg 89%
    22:00 +6°C° 0 mm 1 mps 634 mmHg 95%
    23:00 +5°C° 0 mm 1 mps 634 mmHg 93%

    Tomorrow, 27 May, Saturday

    Time Temperature Precipitation Wind Pressure Humidity
    00:00 +5°C° 0 mm 1 mps 634 mmHg 92%
    01:00 +5°C° 0 mm 1 mps 634 mmHg 91%
    02:00 +5°C° 0 mm 1 mps 634 mmHg 89%
    03:00 +5°C° 0 mm 1 mps 634 mmHg 87%
    04:00 +5°C° 0 mm 1 mps 634 mmHg 86%
    05:00 +8°C° 0 mm 1 mps 635 mmHg 76%
    06:00 +10°C° 0 mm 0 mps 636 mmHg 67%
    07:00 +13°C° 0 mm 0 mps 637 mmHg 57%
    08:00 +16°C° 0 mm 1 mps 638 mmHg 49%
    09:00 +19°C° 0 mm 1 mps 639 mmHg 42%
    10:00 +21°C° 0 mm 1 mps 640 mmHg 34%
    11:00 +22°C° 0 mm 1 mps 640 mmHg 34%
    12:00 +21°C° 0 mm 2 mps 640 mmHg 35%
    13:00 +23°C° 0 mm 2 mps 640 mmHg 35%
    14:00 +21°C° 0 mm 2 mps 640 mmHg 38%
    15:00 +21°C° 0 mm 2 mps 639 mmHg 42%
    16:00 +21°C° 0 mm 2 mps 639 mmHg 46%
    17:00 +19°C° 0.1 mm 2 mps 639 mmHg 57%
    18:00 +18°C° 0.1 mm 1 mps 638 mmHg 69%
    19:00 +15°C° 0.1 mm 1 mps 638 mmHg 81%
    20:00 +13°C° 0 mm 1 mps 637 mmHg 86%
    21:00 +10°C° 0 mm 1 mps 637 mmHg 91%
    22:00 +6°C° 0 mm 0 mps 636 mmHg 96%
    23:00 +8°C° 0 mm 1 mps 636 mmHg 96%

    Day after tomorrow, 28 May, Sunday

    Time Temperature Precipitation Wind Pressure Humidity
    00:00 +9°C° 0 mm 1 mps 637 mmHg 95%
    01:00 +9°C° 0 mm 1 mps 637 mmHg 95%
    02:00 +9°C° 0 mm 1 mps 637 mmHg 95%
    03:00 +9°C° 0 mm 1 mps 637 mmHg 95%
    04:00 +9°C° 0 mm 1 mps 637 mmHg 94%
    05:00 +11°C° 0 mm 1 mps 638 mmHg 89%
    06:00 +13°C° 0 mm 1 mps 639 mmHg 84%
    07:00 +14°C° 0 mm 1 mps 639 mmHg 78%
    08:00 +18°C° 0 mm 1 mps 640 mmHg 66%
    09:00 +20°C° 0 mm 1 mps 641 mmHg 53%
    10:00 +22°C° 0 mm 1 mps 642 mmHg 41%
    11:00 +23°C° 0 mm 1 mps 642 mmHg 39%
    12:00 +24°C° 0 mm 1 mps 642 mmHg 37%
    13:00 +24°C° 0 mm 1 mps 642 mmHg 35%
    14:00 +24°C° 0.1 mm 2 mps 641 mmHg 38%
    15:00 +23°C° 0.1 mm 2 mps 641 mmHg 42%
    16:00 +23°C° 0.1 mm 2 mps 641 mmHg 45%
    17:00 +21°C° 0.1 mm 1 mps 640 mmHg 57%
    18:00 +19°C° 0.1 mm 1 mps 640 mmHg 69%
    19:00 +18°C° 0.1 mm 1 mps 639 mmHg 80%
    20:00 +14°C° 0 mm 1 mps 638 mmHg 85%
    21:00 +12°C° 0 mm 1 mps 638 mmHg 90%
    22:00 +8°C° 0 mm 0 mps 637 mmHg 96%
    23:00 +10°C° 0 mm 1 mps 637 mmHg 95%

    29 May, Monday

    Time Temperature Precipitation Wind Pressure Humidity
    00:00 +10°C° 0 mm 1 mps 637 mmHg 95%
    01:00 +11°C° 0 mm 1 mps 637 mmHg 94%
    02:00 +10°C° 0 mm 1 mps 637 mmHg 94%
    03:00 +10°C° 0 mm 1 mps 637 mmHg 94%
    04:00 +9°C° 0 mm 1 mps 636 mmHg 93%
    05:00 +12°C° 0 mm 1 mps 637 mmHg 88%
    06:00 +14°C° 0 mm 1 mps 638 mmHg 82%
    07:00 +15°C° 0 mm 0 mps 638 mmHg 77%
    08:00 +17°C° 0 mm 0 mps 639 mmHg 66%
    09:00 +21°C° 0 mm 1 mps 640 mmHg 56%
    10:00 +23°C° 0 mm 1 mps 640 mmHg 46%
    11:00 +24°C° 0 mm 1 mps 640 mmHg 43%
    12:00 +24°C° 0 mm 1 mps 640 mmHg 41%
    13:00 +25°C° 0 mm 2 mps 640 mmHg 38%
    14:00 +24°C° 0.2 mm 2 mps 639 mmHg 42%
    15:00 +24°C° 0.2 mm 2 mps 639 mmHg 46%
    16:00 +23°C° 0.2 mm 2 mps 639 mmHg 50%
    17:00 +22°C° 0.3 mm 1 mps 638 mmHg 61%
    18:00 +20°C° 0.3 mm 1 mps 638 mmHg 73%
    19:00 +18°C° 0.3 mm 1 mps 637 mmHg 84%
    20:00 +15°C° 0.2 mm 1 mps 636 mmHg 88%
    21:00 +12°C° 0.2 mm 1 mps 635 mmHg 92%
    22:00 +9°C° 0.2 mm 0 mps 635 mmHg 96%
    23:00 +9°C° 0 mm 0 mps 635 mmHg 96%

    30 May, Tuesday

    Time Temperature Precipitation Wind Pressure Humidity
    00:00 +10°C° 0 mm 1 mps 635 mmHg 95%
    01:00 +10°C° 0 mm 1 mps 635 mmHg 95%
    02:00 +10°C° 0 mm 1 mps 634 mmHg 95%
    03:00 +9°C° 0 mm 1 mps 634 mmHg 95%
    04:00 +9°C° 0 mm 1 mps 634 mmHg 95%
    05:00 +10°C° 0 mm 0 mps 635 mmHg 90%
    06:00 +13°C° 0 mm 0 mps 636 mmHg 86%
    07:00 +15°C° 0 mm 0 mps 637 mmHg 81%
    08:00 +19°C° 0 mm 1 mps 638 mmHg 72%
    09:00 +21°C° 0 mm 1 mps 638 mmHg 62%
    10:00 +23°C° 0 mm 1 mps 639 mmHg 53%
    11:00 +23°C° 0.6 mm 1 mps 639 mmHg 55%
    12:00 +23°C° 0.6 mm 1 mps 638 mmHg 57%
    13:00 +23°C° 0.6 mm 2 mps 638 mmHg 59%
    14:00 +22°C° 1.7 mm 1 mps 638 mmHg 65%
    15:00 +21°C° 1.7 mm 1 mps 638 mmHg 71%
    16:00 +20°C° 1.7 mm 1 mps 637 mmHg 78%
    17:00 +19°C° 1.3 mm 1 mps 637 mmHg 83%
    18:00 +18°C° 1.3 mm 1 mps 637 mmHg 88%
    19:00 +15°C° 1.3 mm 0 mps 637 mmHg 93%
    20:00 +14°C° 0.7 mm 0 mps 636 mmHg 94%
    21:00 +12°C° 0.7 mm 0 mps 636 mmHg 96%
    22:00 +11°C° 0.7 mm 0 mps 636 mmHg 97%
    23:00 +10°C° 0.4 mm 0 mps 636 mmHg 97%

    31 May, Wednesday

    Time Temperature Precipitation Wind Pressure Humidity
    00:00 +11°C° 0.4 mm 1 mps 635 mmHg 97%
    01:00 +11°C° 0.4 mm 1 mps 635 mmHg 96%
    02:00 +11°C° 0.3 mm 1 mps 635 mmHg 96%
    03:00 +11°C° 0.3 mm 1 mps 635 mmHg 96%
    04:00 +10°C° 0.3 mm 1 mps 635 mmHg 96%
    05:00 +12°C° 0.2 mm 1 mps 636 mmHg 94%
    06:00 +13°C° 0.2 mm 0 mps 637 mmHg 91%
    07:00 +15°C° 0.2 mm 0 mps 637 mmHg 88%
    08:00 +16°C° 0.4 mm 0 mps 638 mmHg 81%
    09:00 +18°C° 0.4 mm 0 mps 638 mmHg 74%
    10:00 +21°C° 0.4 mm 1 mps 639 mmHg 67%
    11:00 +22°C° 0.9 mm 1 mps 639 mmHg 64%
    12:00 +22°C° 0.9 mm 1 mps 639 mmHg 62%
    13:00 +23°C° 0.9 mm 1 mps 639 mmHg 60%
    14:00 +22°C° 1.4 mm 1 mps 638 mmHg 64%
    15:00 +22°C° 1.4 mm 1 mps 638 mmHg 68%
    16:00 +21°C° 1.4 mm 1 mps 638 mmHg 72%
    17:00 +20°C° 1.4 mm 1 mps 638 mmHg 79%
    18:00 +19°C° 1.4 mm 1 mps 637 mmHg 85%
    19:00 +16°C° 1.4 mm 0 mps 637 mmHg 91%
    20:00 +15°C° 1.6 mm 1 mps 637 mmHg 93%
    21:00 +13°C° 1.6 mm 1 mps 636 mmHg 95%
    22:00 +11°C° 1.6 mm 1 mps 636 mmHg 97%
    23:00 +10°C° 1 mm 1 mps 636 mmHg 97%
    Show more